INTASAT

Satellite information

Favourite Embed

Satellite Type and Status

PAYLOADIN ORBIT

Key statistics

Satellite INTASAT at a glance.

Uptime

18495

Days in orbit

Revolutions

≈ 12.5

Per day

Orbit

SSO

Sun Synchronous Orbit

Inclination

102.0

Latest

Satellite identification and parameters

Extended collection of information and parameters for INTASAT.

Object identification

Identified? True

Debris? False

Object name: INTASAT

International designator: 1974-089C

Object number (NORAD): 7531

Object ID (CCSDS): 7531

Country: SPAIN (SPN)

Current information (Y/N): Y

RCS size: MEDIUM

Orbital parameters

Period: 114.877 minutes

Inclination: 101.9945 deg

SMA: 7827.947 km

Apoapsis: 1459.067 km

Periapsis: 1440.557 km

RAAN: 189.2984 deg

Eccentricy: 0.0011823

Argument of periapsis: 85.4019 deg

Mean anomaly: 33.2262 deg

Mean motion: 12.53519129 rev/day

Mean motion (dot): -0.00000032 rev/day2

B* drag term: 0.000089621 1/REarth

Two-line elements (TLE)

Creation date: July 4, 2025, 6:39 p.m.

Reference frame: TEME

Reference center: EARTH

Epoch: July 4, 2025, 2:31 p.m. UTC

TLE line 0: 0 INTASAT

TLE line 1: 1 07531U 74089C 25185.60547347 -.00000032 00000-0 89621-4 0 9997

TLE line 2: 2 07531 101.9945 189.2984 0011823 85.4019 33.2262 12.53519129316725

Live tracking on map

Real-time ground track for satellite INTASAT.

In-orbit conjunctions

There are no conjunctions computed for INTASAT, at the moment. Check back to stay up to date, as we update our databases every day.

Go to all conjunctions

Associated space launch

Meteorological satellite using radiometric imaging

INTASAT was lifted into orbit during the mission ‘Delta 2310 | NOAA 4’, on board a Delta 2310 space rocket.

The launch took place on Nov. 15, 1974, 5:11 p.m. from Space Launch Complex 2W.

For more information about the launch, click the button.

Launch to space Delta 2310 | NOAA 4
Delta 2310 | NOAA 4

Agency: N/A

Status: Launch Successful

Launch date: Nov. 15, 1974, 5:11 p.m. UTC

Rocket: Delta 2310

Launch pad: Space Launch Complex 2W

Location: Vandenberg SFB, CA, USA

...

Latest news about this satellite

There are no fresh news available about this satellite. Check back as we update our databases every day.


Newsletter sign-up

Weekly statistics, charts and insights to help you stay on top of the space industry.